[[{"header":{"parameterUnit":"m.s-1","parameterCategory":2,"la1":30.2991,"la2":30.254,"lo1":-89.0895,"lo2":-89.0444,"dy":0.0017,"dx":0.0017,"nx":28,"ny":28,"refTime":"2025-01-14T03:00:00:Z","depth":"0","parameterNumber":2,"parameterNumberName":"U-component_of_CURRENTS"},"data":[0,0,0,0,0,0,0,0,0,0,0,0,0,0,0,0,0,0,0,0,0,0,0,0,0,0,0,0,0,0,0,0,0,0,0,0,0,0,0,0,0,0,0,0,0,0,0,0,0,0,0,0,0,0,0,0,0,0,-0.229,-0.229,0,-0.2308,-0.2308,-0.2308,-0.2282,-0.2281,-0.2281,-0.228,-0.2234,-0.2233,-0.2233,0,0,0,0,0,0,0,0,0,0,0,0,0,-0.2193,-0.2195,-0.229,-0.229,-0.2291,-0.2308,-0.2308,-0.2308,-0.2282,-0.2281,-0.228,-0.228,-0.2234,-0.2233,-0.2233,0,0,0,0,0,0,0,0,0,0,0,0,0,-0.2223,-0.2196,-0.229,-0.2282,-0.2281,-0.2308,-0.2308,-0.2308,-0.2282,-0.2281,-0.228,-0.2279,-0.2234,-0.2233,-0.2233,-0.2247,0,0,-0.223,-0.2229,0,0,0,0,0,0,0,0,-0.2222,-0.2226,-0.2283,-0.2282,-0.2282,-0.2294,-0.2257,-0.2285,-0.2283,-0.2279,-0.228,-0.2279,-0.225,-0.2248,-0.2251,-0.2245,-0.2243,-0.223,-0.2229,-0.2229,-0.2229,0,0,0,0,0,0,0,-0.222,-0.2225,-0.2294,-0.2283,-0.2283,-0.2264,-0.2267,-0.2262,-0.2267,-0.228,-0.2278,-0.2285,-0.2249,-0.2252,-0.225,-0.2243,-0.223,-0.2229,-0.2228,-0.2228,-0.2274,-0.2275,0,0,0,0,0,0,-0.2226,-0.2224,-0.2294,-0.2295,-0.2252,-0.2267,-0.227,-0.2289,-0.2269,-0.2266,-0.2286,-0.2283,-0.2254,-0.2251,-0.2248,-0.228,-0.2229,-0.2228,-0.2227,-0.2272,-0.2274,-0.2276,0,0,0,0,0,0,-0.2224,-0.2233,-0.2293,-0.2261,-0.2267,-0.227,-0.2291,-0.229,-0.2295,-0.2274,-0.2269,-0.2292,-0.2253,-0.2249,-0.2264,-0.2277,-0.2228,-0.2227,-0.227,-0.2273,-0.2275,-0.2333,0,0,0,0,0,0,-0.2222,-0.2232,-0.2244,-0.2262,-0.227,-0.2327,-0.2292,-0.2291,-0.2301,-0.2299,-0.2278,-0.2273,-0.2252,-0.2266,-0.2263,-0.2275,-0.2226,-0.2268,-0.2271,-0.2274,-0.2329,-0.2337,-0.2344,0,0,0,0,0,-0.2218,-0.2246,-0.2245,-0.2253,-0.2288,-0.2329,-0.2331,-0.2326,-0.2303,-0.2322,-0.2309,-0.2274,-0.2284,-0.2267,-0.2263,-0.2275,-0.2266,-0.227,-0.2274,-0.2325,-0.2336,-0.2344,0,0,0,0,0,0,-0.2202,-0.2247,-0.2246,-0.2283,-0.2311,-0.2325,-0.2339,-0.2334,-0.2338,-0.2329,-0.2299,-0.2295,-0.2312,-0.2294,-0.2276,-0.2301,-0.2268,-0.2272,-0.2308,-0.2318,-0.2325,-0.232,-0.2225,0,0,0,0,0,-0.2208,-0.2242,-0.2277,-0.2303,-0.2322,-0.233,-0.2341,-0.2344,-0.2352,-0.2352,-0.2336,-0.2324,-0.2327,-0.2323,-0.2323,-0.2337,-0.2306,-0.2343,-0.2351,-0.2358,-0.2354,-0.2338,-0.2344,-0.2289,-0.2289,-0.2289,0,0,-0.2201,-0.2234,-0.2248,-0.2302,-0.2317,-0.2356,-0.2334,-0.2365,-0.2384,-0.2346,-0.2361,-0.2352,-0.234,-0.2359,-0.2363,-0.2343,-0.2357,-0.2363,-0.2368,-0.236,-0.2343,-0.2348,-0.2352,-0.2291,-0.2291,-0.2291,0,0,-0.2227,-0.2245,-0.2291,-0.2325,-0.2369,-0.2374,-0.2387,-0.2412,-0.2413,-0.2438,-0.2413,-0.2418,-0.2417,-0.2412,-0.2408,-0.2461,-0.2403,-0.2459,-0.2486,-0.2472,-0.2476,-0.2479,-0.244,-0.2439,-0.2458,-0.2458,-0.2458,0,-0.2211,-0.228,-0.2307,-0.2367,-0.2384,-0.2386,-0.2428,-0.2441,-0.2462,-0.2463,-0.2451,-0.2453,-0.2442,-0.2458,-0.2478,-0.2476,-0.2448,-0.2448,-0.248,-0.2482,-0.2484,-0.2444,-0.2442,-0.2461,-0.2461,-0.246,-0.246,0,-0.2282,-0.2332,-0.2362,-0.2429,-0.2455,-0.249,-0.2515,-0.2529,-0.2518,-0.2522,-0.2538,-0.2531,-0.2525,-0.253,-0.2518,-0.2531,-0.25,-0.2493,-0.245,-0.2492,-0.2448,-0.2445,-0.2466,-0.2465,-0.2464,-0.2463,0,0,-0.2236,-0.2383,-0.2385,-0.2417,-0.2486,-0.2499,-0.2546,-0.2572,-0.2568,-0.2594,-0.2593,-0.2615,-0.2595,-0.2591,-0.2576,-0.2568,-0.2559,-0.2537,-0.2534,-0.2487,-0.2505,-0.2427,-0.2415,-0.2553,-0.2553,-0.2553,-0.2466,0,-0.2268,-0.2374,-0.2442,-0.2497,-0.2538,-0.2565,-0.259,-0.2611,-0.2615,-0.2615,-0.2623,-0.2614,-0.2623,-0.2603,-0.261,-0.2566,-0.2554,-0.2581,-0.2481,-0.2477,-0.2394,-0.2411,-0.2299,-0.2207,-0.2462,-0.2462,-0.2461,0,-0.2309,-0.2364,-0.2439,-0.251,-0.2526,-0.255,-0.2551,-0.2581,-0.2605,-0.2609,-0.2628,-0.2624,-0.2629,-0.2619,-0.2587,-0.2601,-0.2561,-0.253,-0.2526,-0.2428,-0.2393,-0.2209,-0.2191,-0.2181,-0.2456,-0.2456,-0.2456,0,-0.2226,-0.2352,-0.2394,-0.2423,-0.2505,-0.2517,-0.2535,-0.2562,-0.2561,-0.2587,-0.2575,-0.2607,-0.258,-0.2574,-0.2536,-0.2551,-0.248,-0.2489,-0.2384,-0.2377,-0.2248,-0.2229,-0.2196,-0.2461,-0.2461,-0.2461,-0.2461,0,-0.2219,-0.2247,-0.2354,-0.236,-0.2363,-0.2446,-0.2432,-0.2462,-0.2492,-0.2472,-0.2545,-0.2519,-0.2564,-0.254,-0.2525,-0.2436,-0.247,-0.238,-0.2351,-0.2265,-0.225,-0.2208,-0.223,-0.2458,-0.2459,-0.2459,-0.246,0,-0.2123,-0.2216,-0.2241,-0.2309,-0.2328,-0.2305,-0.2353,-0.2338,-0.239,-0.2367,-0.2369,-0.2429,-0.2398,-0.2429,-0.2393,-0.2379,-0.2272,-0.2284,-0.2171,-0.213,-0.2025,-0.2055,-0.196,-0.1907,-0.215,-0.2147,-0.2145,0,-0.2087,-0.2097,-0.2145,-0.2135,-0.2163,-0.2168,-0.2164,-0.2249,-0.2243,-0.2288,-0.2258,-0.2265,-0.2236,-0.2183,-0.2172,-0.213,-0.2145,-0.1993,-0.2012,-0.1995,-0.2008,-0.2028,-0.1993,-0.1861,-0.1856,-0.1853,-0.185,0,-0.1958,-0.1973,-0.1974,-0.1962,-0.1958,-0.1965,-0.1982,-0.1972,-0.2055,-0.2054,-0.2034,-0.2025,-0.2017,-0.1946,-0.1929,-0.1892,-0.1935,-0.1919,-0.1931,-0.18,-0.1788,-0.173,-0.194,-0.1819,-0.1823,-0.1825,-0.1826,-0.1828,-0.1812,-0.1774,-0.1771,-0.1754,-0.1756,-0.1737,-0.1693,-0.174,-0.1718,-0.1715,-0.1793,-0.1769,-0.1775,-0.1739,-0.1706,-0.1629,-0.17,-0.1587,-0.1628,-0.1653,-0.1595,-0.1728,-0.1564,-0.1565,-0.1567,-0.1568,-0.1569,0,-0.1607,-0.1598,-0.1569,-0.1535,-0.1481,-0.1554,-0.1545,-0.1499,-0.1439,-0.1506,-0.1496,-0.1523,-0.1453,-0.1484,-0.1436,-0.1375,-0.1357,-0.1347,-0.1364,-0.1346,-0.1471,-0.1452,-0.1219,-0.1219,-0.1219,-0.1219,-0.1219,-0.1219,-0.149,-0.1403,-0.1411,-0.1273,-0.1257,-0.116,-0.1132,-0.1112,-0.114,-0.114,-0.1204,-0.1299,-0.1358,-0.1418,-0.1329,-0.1258,-0.1251,-0.1183,-0.1242,-0.136,-0.1387,-0.1413,-0.14,-0.116,-0.116,-0.1049,-0.1049,-0.1048]},{"header":{"parameterUnit":"m.s-1","parameterCategory":2,"la1":30.2991,"la2":30.254,"lo1":-89.0895,"lo2":-89.0444,"dy":0.0017,"dx":0.0017,"nx":28,"ny":28,"refTime":"2025-01-14T03:00:00:Z","depth":"0","parameterNumber":3,"parameterNumberName":"V-component_of_CURRENTS"},"data":[0,0,0,0,0,0,0,0,0,0,0,0,0,0,0,0,0,0,0,0,0,0,0,0,0,0,0,0,0,0,0,0,0,0,0,0,0,0,0,0,0,0,0,0,0,0,0,0,0,0,0,0,0,0,0,0,0,0,-0.0946,-0.0945,0,-0.0904,-0.0903,-0.0903,-0.0877,-0.0877,-0.0877,-0.0877,-0.0728,-0.0725,-0.0721,0,0,0,0,0,0,0,0,0,0,0,0,0,-0.0929,-0.093,-0.0946,-0.0945,-0.0945,-0.0904,-0.0903,-0.0902,-0.0877,-0.0877,-0.0877,-0.0877,-0.073,-0.0725,-0.072,0,0,0,0,0,0,0,0,0,0,0,0,0,-0.0915,-0.093,-0.0946,-0.0929,-0.0927,-0.0904,-0.0903,-0.0902,-0.0877,-0.0877,-0.0877,-0.0877,-0.0731,-0.0726,-0.072,-0.0682,0,0,-0.0701,-0.0699,0,0,0,0,0,0,0,0,-0.0916,-0.0916,-0.0931,-0.093,-0.0928,-0.0897,-0.0843,-0.0824,-0.0877,-0.0894,-0.0877,-0.0877,-0.0776,-0.0766,-0.0758,-0.0675,-0.0668,-0.0701,-0.0697,-0.0695,-0.0693,0,0,0,0,0,0,0,-0.0917,-0.0917,-0.0927,-0.0931,-0.0929,-0.0898,-0.0896,-0.0839,-0.0832,-0.0893,-0.0891,-0.0889,-0.0774,-0.0763,-0.0754,-0.0666,-0.0701,-0.0696,-0.0692,-0.069,-0.0549,-0.0549,0,0,0,0,0,0,-0.093,-0.0918,-0.0929,-0.0926,-0.0924,-0.0898,-0.0897,-0.0906,-0.0835,-0.0826,-0.0889,-0.0888,-0.0774,-0.0761,-0.0748,-0.0688,-0.0695,-0.0689,-0.0686,-0.0549,-0.0549,-0.0549,0,0,0,0,0,0,-0.093,-0.0932,-0.093,-0.0922,-0.092,-0.0899,-0.0909,-0.0905,-0.0894,-0.0834,-0.0822,-0.0884,-0.0773,-0.0756,-0.0705,-0.0682,-0.0686,-0.0681,-0.0549,-0.0549,-0.0549,-0.0574,0,0,0,0,0,0,-0.093,-0.0932,-0.0939,-0.0923,-0.0921,-0.0919,-0.0909,-0.0904,-0.0894,-0.0892,-0.0825,-0.0811,-0.0772,-0.0715,-0.0699,-0.0674,-0.0676,-0.0549,-0.0549,-0.0549,-0.0573,-0.0574,-0.0576,0,0,0,0,0,-0.0929,-0.0952,-0.094,-0.0941,-0.0933,-0.092,-0.0915,-0.0899,-0.0894,-0.0889,-0.085,-0.0813,-0.0702,-0.071,-0.0692,-0.0664,-0.0549,-0.0549,-0.0549,-0.0573,-0.0574,-0.0576,0,0,0,0,0,0,-0.0956,-0.0951,-0.0938,-0.0959,-0.0937,-0.0916,-0.0922,-0.09,-0.0867,-0.087,-0.0808,-0.0791,-0.0737,-0.0703,-0.0713,-0.0626,-0.062,-0.0616,-0.0644,-0.0645,-0.0646,-0.0668,-0.0671,0,0,0,0,0,-0.0963,-0.0974,-0.0955,-0.0968,-0.0968,-0.0941,-0.0933,-0.0919,-0.0891,-0.0878,-0.0821,-0.0771,-0.0722,-0.0688,-0.064,-0.0588,-0.0552,-0.0561,-0.0562,-0.0564,-0.057,-0.0505,-0.0501,-0.0548,-0.0548,-0.0548,0,0,-0.0976,-0.0975,-0.098,-0.0973,-0.0964,-0.0957,-0.0937,-0.0936,-0.0915,-0.0863,-0.0817,-0.077,-0.0711,-0.0658,-0.063,-0.0625,-0.053,-0.0563,-0.0564,-0.0571,-0.0504,-0.05,-0.0496,-0.0547,-0.0547,-0.0547,0,0,-0.1014,-0.1011,-0.1033,-0.1021,-0.1009,-0.0979,-0.0978,-0.0947,-0.0924,-0.0879,-0.0835,-0.0779,-0.0702,-0.0649,-0.0616,-0.0594,-0.0542,-0.0578,-0.0591,-0.0528,-0.0523,-0.0519,-0.0461,-0.0452,-0.0575,-0.0575,-0.0575,0,-0.102,-0.1045,-0.1034,-0.105,-0.103,-0.0991,-0.0987,-0.0962,-0.0907,-0.0878,-0.0872,-0.0754,-0.0697,-0.0625,-0.0622,-0.0592,-0.0558,-0.0588,-0.0529,-0.0524,-0.0519,-0.0461,-0.045,-0.0576,-0.0576,-0.0576,-0.0576,0,-0.1068,-0.1082,-0.1098,-0.1089,-0.1066,-0.106,-0.1017,-0.0985,-0.0943,-0.0904,-0.0832,-0.0763,-0.069,-0.0661,-0.0634,-0.0566,-0.0553,-0.054,-0.0525,-0.0515,-0.0455,-0.0443,-0.0578,-0.0577,-0.0577,-0.0577,0,0,-0.1066,-0.1117,-0.1113,-0.1113,-0.1078,-0.106,-0.1029,-0.097,-0.094,-0.0886,-0.0834,-0.0751,-0.0713,-0.0675,-0.062,-0.0569,-0.0495,-0.0548,-0.0544,-0.0492,-0.0361,-0.0313,-0.0295,-0.0475,-0.0473,-0.0472,-0.0331,0,-0.1083,-0.1126,-0.1126,-0.1119,-0.1125,-0.1075,-0.1039,-0.0986,-0.0929,-0.0872,-0.0807,-0.0741,-0.0718,-0.0677,-0.0623,-0.0526,-0.0467,-0.0535,-0.0378,-0.0373,-0.0332,-0.028,-0.0264,-0.0133,-0.0319,-0.0317,-0.0315,0,-0.1116,-0.1125,-0.1144,-0.1129,-0.1122,-0.1102,-0.1016,-0.0982,-0.0909,-0.0871,-0.0811,-0.0758,-0.0668,-0.0657,-0.0499,-0.0547,-0.046,-0.0394,-0.0387,-0.0327,-0.0302,-0.0174,-0.0104,0.0007,-0.0296,-0.0298,-0.0299,0,-0.1111,-0.113,-0.1136,-0.1131,-0.1109,-0.1089,-0.105,-0.098,-0.0944,-0.0866,-0.0833,-0.0736,-0.0668,-0.0569,-0.0436,-0.0461,-0.0268,-0.0275,-0.0151,-0.0146,-0.0093,-0.0087,0.0102,-0.0162,-0.0163,-0.0163,-0.0163,0,-0.1131,-0.1134,-0.1142,-0.1142,-0.1117,-0.1094,-0.1048,-0.101,-0.0948,-0.0898,-0.0834,-0.0771,-0.0645,-0.0525,-0.0425,-0.0242,-0.0246,-0.0139,-0.0099,-0.0101,-0.0098,0.0032,0.0061,-0.0158,-0.0159,-0.016,-0.0161,0,-0.1156,-0.1172,-0.1173,-0.1143,-0.1135,-0.1114,-0.1068,-0.1032,-0.0979,-0.0913,-0.0891,-0.0775,-0.0615,-0.0481,-0.0289,-0.0202,0.003,0.0018,0.0003,0.0039,0.0239,0.0264,0.0483,0.0543,0.0176,0.0178,0.018,0,-0.1183,-0.1192,-0.1171,-0.1166,-0.116,-0.1129,-0.1104,-0.1053,-0.1013,-0.0907,-0.0874,-0.0719,-0.0599,-0.031,-0.0123,0.0082,0.0148,0.0221,0.0179,0.0274,0.0332,0.0345,0.0379,0.0244,0.0246,0.0248,0.0249,0,-0.119,-0.1187,-0.1179,-0.1172,-0.1157,-0.1132,-0.1095,-0.1076,-0.0999,-0.0946,-0.0835,-0.0737,-0.0461,-0.0221,0.0047,0.0165,0.0298,0.0264,0.0378,0.042,0.0433,0.05,0.0119,0.0265,0.0263,0.0262,0.0261,0.0261,-0.1174,-0.1175,-0.1163,-0.1154,-0.1142,-0.1114,-0.1082,-0.1051,-0.0992,-0.0901,-0.0813,-0.0657,-0.0319,0.0056,0.0202,0.0502,0.0458,0.0572,0.0602,0.0612,0.0655,0.0306,0.0485,0.0484,0.0484,0.0484,0.0483,0,-0.1123,-0.1134,-0.1137,-0.1114,-0.1086,-0.1089,-0.105,-0.1014,-0.0949,-0.0884,-0.0781,-0.0433,-0.0083,0.0229,0.065,0.0817,0.0834,0.0897,0.0915,0.0937,0.0655,0.0642,0.0845,0.0845,0.0844,0.0844,0.0844,0.0844,-0.1096,-0.1082,-0.1089,-0.1041,-0.1031,-0.0979,-0.0951,-0.0933,-0.0888,-0.0752,-0.0593,-0.0478,-0.0009,0.0678,0.1076,0.1116,0.1229,0.1231,0.1297,0.1089,0.106,0.1032,0.103,0.1311,0.1311,0.1558,0.1561,0.1563]}],[{"header":{"parameterUnit":"m.s-1","parameterCategory":2,"la1":30.2991,"la2":30.254,"lo1":-89.0895,"lo2":-89.0444,"dy":0.0017,"dx":0.0017,"nx":28,"ny":28,"refTime":"2025-01-14T03:00:00:Z","depth":"2","parameterNumber":2,"parameterNumberName":"U-component_of_CURRENTS"},"data":[0,0,0,0,0,0,0,0,0,0,0,0,0,0,0,0,0,0,0,0,0,0,0,0,0,0,0,0,0,0,0,0,0,0,0,0,0,0,0,0,0,0,0,0,0,0,0,0,0,0,0,0,0,0,0,0,0,0,-0.2012,-0.2011,0,-0.1986,-0.1987,-0.1987,-0.2006,-0.2007,-0.2007,-0.2007,-0.2007,-0.2007,-0.2006,0,0,0,0,0,0,0,0,0,0,0,0,0,-0.1906,-0.1909,-0.2012,-0.2011,-0.201,-0.1986,-0.1987,-0.1987,-0.2006,-0.2007,-0.2007,-0.2008,-0.2007,-0.2007,-0.2006,0,0,0,0,0,0,0,0,0,0,0,0,0,-0.1928,-0.191,-0.2012,-0.2014,-0.2013,-0.1986,-0.1987,-0.1987,-0.2006,-0.2007,-0.2007,-0.2008,-0.2008,-0.2007,-0.2006,-0.199,0,0,-0.2005,-0.2004,0,0,0,0,0,0,0,0,-0.1927,-0.1933,-0.2014,-0.2014,-0.2013,-0.1996,-0.1949,-0.1987,-0.2006,-0.2014,-0.2007,-0.2008,-0.2002,-0.2002,-0.2002,-0.199,-0.199,-0.2004,-0.2004,-0.2004,-0.2004,0,0,0,0,0,0,0,-0.1926,-0.1933,-0.2007,-0.2013,-0.2012,-0.1956,-0.1963,-0.1955,-0.2009,-0.2013,-0.2013,-0.2003,-0.2003,-0.2003,-0.2002,-0.199,-0.2005,-0.2004,-0.2004,-0.2003,-0.2029,-0.203,0,0,0,0,0,0,-0.1928,-0.1933,-0.2007,-0.2005,-0.1965,-0.1958,-0.1965,-0.2005,-0.2008,-0.2008,-0.2002,-0.2004,-0.2004,-0.2003,-0.2002,-0.2043,-0.2004,-0.2003,-0.2003,-0.2028,-0.203,-0.2031,0,0,0,0,0,0,-0.1927,-0.1937,-0.2008,-0.1961,-0.1965,-0.196,-0.2004,-0.2004,-0.2024,-0.1999,-0.2,-0.2024,-0.2004,-0.2003,-0.201,-0.2041,-0.2003,-0.2003,-0.2027,-0.2029,-0.203,-0.2086,0,0,0,0,0,0,-0.1925,-0.1939,-0.1938,-0.1963,-0.1968,-0.203,-0.2003,-0.2003,-0.2013,-0.2015,-0.2017,-0.2017,-0.2004,-0.2011,-0.2009,-0.2039,-0.2002,-0.2026,-0.2028,-0.203,-0.2082,-0.2089,-0.2094,0,0,0,0,0,-0.1922,-0.1923,-0.194,-0.1946,-0.1981,-0.2031,-0.2031,-0.2028,-0.2013,-0.2045,-0.2025,-0.2018,-0.2023,-0.2011,-0.2009,-0.2039,-0.2025,-0.2027,-0.203,-0.208,-0.2088,-0.2094,0,0,0,0,0,0,-0.1854,-0.1926,-0.1945,-0.1963,-0.2013,-0.2034,-0.2049,-0.204,-0.2048,-0.2047,-0.2022,-0.2021,-0.2042,-0.203,-0.2017,-0.2053,-0.2027,-0.2029,-0.2066,-0.2073,-0.2079,-0.2065,-0.2002,0,0,0,0,0,-0.1846,-0.1881,-0.1947,-0.1958,-0.2012,-0.2036,-0.2041,-0.2051,-0.2064,-0.2069,-0.2063,-0.2053,-0.2047,-0.2051,-0.205,-0.2062,-0.2036,-0.2084,-0.209,-0.2095,-0.2083,-0.2067,-0.207,-0.2039,-0.2039,-0.2039,0,0,-0.1823,-0.1855,-0.1877,-0.1946,-0.2001,-0.2046,-0.2048,-0.2093,-0.2091,-0.2065,-0.2075,-0.2076,-0.2054,-0.2073,-0.2082,-0.2068,-0.2093,-0.2098,-0.2102,-0.2087,-0.207,-0.2073,-0.2075,-0.204,-0.204,-0.204,0,0,-0.182,-0.1856,-0.1918,-0.1954,-0.2026,-0.2046,-0.207,-0.2127,-0.2141,-0.2139,-0.2124,-0.214,-0.2126,-0.2128,-0.2117,-0.2154,-0.2126,-0.2165,-0.2184,-0.217,-0.2171,-0.2173,-0.2154,-0.2153,-0.2168,-0.2168,-0.2169,0,-0.1784,-0.1868,-0.1933,-0.1986,-0.1999,-0.2058,-0.211,-0.2123,-0.2145,-0.2166,-0.2153,-0.2155,-0.2145,-0.2159,-0.2168,-0.2168,-0.2148,-0.2159,-0.2176,-0.2177,-0.2177,-0.2157,-0.2156,-0.2171,-0.2171,-0.2171,-0.2171,0,-0.1838,-0.1891,-0.1937,-0.2028,-0.2044,-0.2104,-0.2143,-0.2169,-0.2175,-0.219,-0.2227,-0.2214,-0.2219,-0.2227,-0.2194,-0.2213,-0.2194,-0.2186,-0.2155,-0.2183,-0.2161,-0.2159,-0.2176,-0.2175,-0.2174,-0.2173,0,0,-0.1816,-0.196,-0.1967,-0.2008,-0.2072,-0.209,-0.2118,-0.2185,-0.2186,-0.2229,-0.2235,-0.2255,-0.2281,-0.227,-0.2266,-0.2246,-0.2232,-0.2212,-0.221,-0.2189,-0.2193,-0.211,-0.2099,-0.2224,-0.2224,-0.2223,-0.218,0,-0.1864,-0.1942,-0.2,-0.2048,-0.2109,-0.214,-0.2141,-0.2166,-0.2192,-0.2207,-0.2253,-0.2257,-0.229,-0.2279,-0.2284,-0.2234,-0.2225,-0.2244,-0.2172,-0.2169,-0.2088,-0.2093,-0.1945,-0.1886,-0.2177,-0.2176,-0.2176,0,-0.1902,-0.1944,-0.2009,-0.2064,-0.2101,-0.2104,-0.2111,-0.2124,-0.2169,-0.219,-0.2249,-0.227,-0.2293,-0.2276,-0.227,-0.2279,-0.2242,-0.2203,-0.2201,-0.2096,-0.208,-0.1903,-0.187,-0.2171,-0.2171,-0.2172,-0.2172,0,-0.1822,-0.194,-0.1978,-0.1989,-0.2059,-0.2075,-0.21,-0.2124,-0.2138,-0.2177,-0.2178,-0.225,-0.2236,-0.2239,-0.2213,-0.2228,-0.2156,-0.2173,-0.2077,-0.2072,-0.1914,-0.1894,-0.2145,-0.2145,-0.2145,-0.2145,-0.2145,0,-0.1835,-0.1862,-0.1944,-0.1951,-0.196,-0.2013,-0.2025,-0.2051,-0.2087,-0.2091,-0.2174,-0.2161,-0.2214,-0.2201,-0.2194,-0.2128,-0.2164,-0.2067,-0.2048,-0.1931,-0.1914,-0.2134,-0.2133,-0.2144,-0.2144,-0.2144,-0.2144,0,-0.1759,-0.1838,-0.1853,-0.1914,-0.193,-0.191,-0.1975,-0.1975,-0.2024,-0.2011,-0.2021,-0.2082,-0.2064,-0.2105,-0.2064,-0.2071,-0.2023,-0.1985,-0.1843,-0.1808,-0.1958,-0.1961,-0.1885,-0.1882,-0.1879,-0.1877,-0.1875,0,-0.1728,-0.1735,-0.1756,-0.1753,-0.18,-0.1812,-0.1818,-0.1908,-0.191,-0.1951,-0.1924,-0.1932,-0.1915,-0.1873,-0.186,-0.1839,-0.1911,-0.1678,-0.1683,-0.1938,-0.1929,-0.1936,-0.1943,-0.1506,-0.1501,-0.1497,-0.1493,0,-0.1635,-0.1634,-0.1644,-0.1617,-0.1633,-0.1647,-0.1678,-0.1677,-0.1757,-0.1758,-0.1737,-0.1731,-0.1717,-0.1632,-0.1614,-0.1586,-0.1681,-0.1594,-0.1877,-0.1596,-0.1576,-0.1569,-0.1588,-0.1458,-0.1461,-0.1464,-0.1466,-0.1467,-0.1513,-0.1484,-0.1476,-0.1458,-0.1474,-0.1459,-0.1433,-0.1479,-0.1468,-0.1459,-0.1526,-0.1488,-0.1503,-0.1407,-0.1349,-0.1319,-0.1443,-0.1392,-0.1405,-0.1423,-0.1388,-0.1365,-0.12,-0.1202,-0.1204,-0.1205,-0.1207,0,-0.1343,-0.1351,-0.1318,-0.1294,-0.1258,-0.1316,-0.1311,-0.1274,-0.1227,-0.1269,-0.1261,-0.1152,-0.1105,-0.1136,-0.1043,-0.1033,-0.1043,-0.0981,-0.0998,-0.1033,-0.1064,-0.1013,-0.0724,-0.0723,-0.0722,-0.0721,0,0,-0.1263,-0.1195,-0.1192,-0.1085,-0.1074,-0.0999,-0.0974,-0.0948,-0.0957,-0.0916,-0.0923,-0.1039,-0.1089,-0.0908,-0.0865,-0.0781,-0.0897,-0.0735,-0.1118,-0.1171,-0.12,-0.129,-0.1248,0,0,0,0,0]},{"header":{"parameterUnit":"m.s-1","parameterCategory":2,"la1":30.2991,"la2":30.254,"lo1":-89.0895,"lo2":-89.0444,"dy":0.0017,"dx":0.0017,"nx":28,"ny":28,"refTime":"2025-01-14T03:00:00:Z","depth":"2","parameterNumber":3,"parameterNumberName":"V-component_of_CURRENTS"},"data":[0,0,0,0,0,0,0,0,0,0,0,0,0,0,0,0,0,0,0,0,0,0,0,0,0,0,0,0,0,0,0,0,0,0,0,0,0,0,0,0,0,0,0,0,0,0,0,0,0,0,0,0,0,0,0,0,0,0,-0.0174,-0.0172,0,-0.0047,-0.0046,-0.0045,-0.0072,-0.0074,-0.0076,-0.0077,-0.0029,-0.0027,-0.0024,0,0,0,0,0,0,0,0,0,0,0,0,0,-0.0225,-0.0226,-0.0174,-0.0171,-0.0169,-0.0047,-0.0046,-0.0045,-0.0072,-0.0074,-0.0076,-0.0078,-0.003,-0.0027,-0.0024,0,0,0,0,0,0,0,0,0,0,0,0,0,-0.0169,-0.0226,-0.0174,-0.0163,-0.016,-0.0047,-0.0046,-0.0045,-0.0072,-0.0074,-0.0077,-0.0079,-0.0032,-0.0027,-0.0023,0.0054,0,0,-0.001,-0.0008,0,0,0,0,0,0,0,0,-0.0172,-0.0168,-0.0167,-0.0163,-0.016,-0.0072,-0.0046,-0.0013,-0.0071,-0.0113,-0.0077,-0.008,-0.0044,-0.0039,-0.0019,0.0057,0.0059,-0.001,-0.0007,-0.0005,-0.0004,0,0,0,0,0,0,0,-0.0176,-0.0172,-0.0131,-0.0164,-0.016,-0.009,-0.0088,-0.0039,-0.0073,-0.0109,-0.0109,-0.0083,-0.0044,-0.0023,-0.0018,0.0059,-0.001,-0.0006,-0.0003,-0.0002,0.015,0.0151,0,0,0,0,0,0,-0.0186,-0.0177,-0.0135,-0.0126,-0.0164,-0.0087,-0.0085,-0.0103,-0.0072,-0.0066,-0.0081,-0.0084,-0.0029,-0.0023,-0.0016,-0.0009,-0.0005,-0.0001,0.0001,0.0149,0.015,0.0152,0,0,0,0,0,0,-0.0188,-0.0185,-0.014,-0.014,-0.0128,-0.0085,-0.0104,-0.0099,-0.0117,-0.0048,-0.0046,-0.0108,-0.0031,-0.0022,0.0012,-0.0005,0.0001,0.0005,0.0147,0.0149,0.0151,0.0061,0,0,0,0,0,0,-0.0191,-0.0188,-0.0182,-0.0142,-0.0129,-0.0103,-0.0101,-0.0095,-0.0091,-0.0096,-0.0069,-0.0065,-0.0032,0.0006,0.0017,0.0001,0.0008,0.0145,0.0148,0.0151,0.0062,0.0059,0.0057,0,0,0,0,0,-0.0194,-0.0184,-0.0184,-0.0176,-0.0132,-0.0103,-0.0091,-0.007,-0.009,-0.0098,-0.0068,-0.0068,0.003,0.0011,0.0023,0.0008,0.0144,0.0147,0.015,0.0063,0.006,0.0057,0,0,0,0,0,0,-0.0201,-0.0183,-0.0184,-0.017,-0.015,-0.0106,-0.0105,-0.0089,-0.007,-0.0087,-0.0045,-0.0037,-0.0019,0.0026,0.0003,0.0067,0.0087,0.0092,0.0016,0.0014,0.0012,0.0009,0.0012,0,0,0,0,0,-0.0198,-0.0199,-0.0171,-0.0164,-0.0178,-0.0152,-0.0131,-0.0118,-0.0093,-0.0092,-0.0059,-0.0019,0.0017,0.0035,0.0077,0.012,0.0152,0.0123,0.0121,0.0118,0.013,0.0159,0.0158,0.0163,0.0163,0.0163,0,0,-0.0204,-0.0184,-0.0189,-0.0164,-0.0173,-0.0153,-0.0154,-0.015,-0.0128,-0.0084,-0.0066,-0.0034,0.0026,0.0063,0.0077,0.009,0.0136,0.0123,0.0119,0.0133,0.0162,0.0161,0.016,0.0165,0.0165,0.0164,0,0,-0.0219,-0.0221,-0.0239,-0.0198,-0.018,-0.0168,-0.0181,-0.0155,-0.0165,-0.0113,-0.009,-0.0062,0.0011,0.0046,0.0074,0.0096,0.0114,0.0104,0.0094,0.012,0.0119,0.0119,0.0149,0.0151,0.0111,0.011,0.011,0,-0.0222,-0.0242,-0.0233,-0.0204,-0.0186,-0.019,-0.0197,-0.0174,-0.0119,-0.0131,-0.0122,-0.0036,0.0006,0.0041,0.0058,0.0084,0.0107,0.0084,0.0112,0.0112,0.0113,0.0145,0.0149,0.0106,0.0107,0.0107,0.0108,0,-0.0228,-0.0229,-0.0246,-0.023,-0.0197,-0.0212,-0.0178,-0.0171,-0.0183,-0.0152,-0.0144,-0.0075,-0.0027,-0.0009,0.0039,0.0064,0.008,0.0089,0.0102,0.0106,0.0141,0.0146,0.0101,0.0102,0.0103,0.0104,0,0,-0.0295,-0.0275,-0.027,-0.0275,-0.0223,-0.0207,-0.0194,-0.0209,-0.0214,-0.0168,-0.0168,-0.0103,-0.009,-0.0052,-0.001,0.0035,0.0063,0.0071,0.0074,0.0073,0.0122,0.0153,0.0162,0.0065,0.0066,0.0066,0.0139,0,-0.0341,-0.0321,-0.029,-0.0281,-0.03,-0.0261,-0.0244,-0.021,-0.0209,-0.0185,-0.0161,-0.0131,-0.0104,-0.0082,-0.0042,0.0044,0.0077,0.0043,0.0146,0.015,0.0152,0.017,0.0142,0.0206,0.0145,0.0146,0.0147,0,-0.0351,-0.035,-0.0369,-0.035,-0.0363,-0.0327,-0.0328,-0.0301,-0.026,-0.0258,-0.0233,-0.0193,-0.0129,-0.0098,0.0006,-0.0021,0.0047,0.0111,0.0115,0.0183,0.0192,0.02,0.0219,0.0157,0.0156,0.0155,0.0155,0,-0.0404,-0.0393,-0.0439,-0.0406,-0.0378,-0.0389,-0.0381,-0.0334,-0.034,-0.0294,-0.0279,-0.0225,-0.0179,-0.01,0.0026,0.0017,0.0156,0.0151,0.0233,0.0236,0.0257,0.026,0.0221,0.0221,0.0221,0.0221,0.0221,0,-0.0464,-0.0476,-0.0463,-0.0463,-0.0498,-0.0433,-0.0461,-0.0435,-0.0397,-0.039,-0.0327,-0.0295,-0.0174,-0.008,0.0019,0.0149,0.0136,0.0244,0.0261,0.0227,0.0227,0.0225,0.0224,0.0224,0.0223,0.0222,0.0222,0,-0.0515,-0.0522,-0.0535,-0.0527,-0.0524,-0.0527,-0.0508,-0.0509,-0.0475,-0.0447,-0.0433,-0.034,-0.0222,-0.0094,0.0067,0.0141,0.0267,0.0313,0.0272,0.0283,0.0328,0.0322,0.0404,0.0406,0.0408,0.0409,0.041,0,-0.0546,-0.0563,-0.0553,-0.0568,-0.0583,-0.0581,-0.0581,-0.0553,-0.0542,-0.0475,-0.0459,-0.0342,-0.0255,-0.0022,0.0143,0.0311,0.031,0.0386,0.0368,0.0341,0.0349,0.0341,0.0333,0.0357,0.0358,0.0358,0.0359,0,-0.0596,-0.0587,-0.061,-0.0615,-0.0633,-0.064,-0.063,-0.0633,-0.0588,-0.0563,-0.0492,-0.0415,-0.0196,-0.001,0.0217,0.0311,0.0357,0.0401,0.0387,0.0316,0.0303,0.0308,0.0301,0.0362,0.0362,0.0362,0.0362,0.0361,-0.0609,-0.0632,-0.0639,-0.065,-0.0671,-0.0673,-0.0668,-0.0657,-0.064,-0.0582,-0.0514,-0.0397,-0.0208,0.0101,0.0262,0.0412,0.0409,0.0445,0.044,0.0436,0.0419,0.0409,0.0486,0.0486,0.0486,0.0486,0.0487,0,-0.0611,-0.0642,-0.0657,-0.0674,-0.0683,-0.0683,-0.0678,-0.0662,-0.0636,-0.0597,-0.0528,-0.0327,-0.0116,0.0077,0.0316,0.0463,0.0441,0.0483,0.0423,0.0419,0.0415,0.0394,0.0456,0.0456,0.0456,0.0457,0,0,-0.0624,-0.0647,-0.0651,-0.0662,-0.0672,-0.0666,-0.0658,-0.0647,-0.0613,-0.0573,-0.0502,-0.038,-0.0131,0.0033,0.0218,0.034,0.0336,0.0348,0.0358,0.026,0.0255,0.0381,0.0343,0,0,0,0,0]}],[{"header":{"parameterUnit":"m.s-1","parameterCategory":2,"la1":30.2991,"la2":30.254,"lo1":-89.0895,"lo2":-89.0444,"dy":0.0017,"dx":0.0017,"nx":28,"ny":28,"refTime":"2025-01-14T03:00:00:Z","depth":"4","parameterNumber":2,"parameterNumberName":"U-component_of_CURRENTS"},"data":[0,0,0,0,0,0,0,0,0,0,0,0,0,0,0,0,0,0,0,0,0,0,0,0,0,0,0,0,0,0,0,0,0,0,0,0,0,0,0,0,0,0,0,0,0,0,0,0,0,0,0,0,0,0,0,0,0,0,-0.0588,-0.0588,0,-0.0585,-0.0585,-0.0585,-0.06,-0.0601,-0.0601,-0.0601,-0.0603,-0.0603,-0.0602,0,0,0,0,0,0,0,0,0,0,0,0,0,-0.0632,-0.0631,-0.0588,-0.0588,-0.0588,-0.0585,-0.0585,-0.0585,-0.06,-0.0601,-0.0601,-0.0601,-0.0603,-0.0603,-0.0602,0,0,0,0,0,0,0,0,0,0,0,0,0,-0.0621,-0.0631,-0.0588,-0.0593,-0.0594,-0.0585,-0.0585,-0.0586,-0.06,-0.0601,-0.0601,-0.0601,-0.0603,-0.0603,-0.0602,-0.0593,0,0,-0.0601,-0.0601,0,0,0,0,0,0,0,0,-0.0622,-0.062,-0.0593,-0.0593,-0.0593,-0.0592,-0.0601,-0.0587,-0.06,-0.06,-0.0601,-0.0602,-0.0598,-0.0598,-0.0599,-0.0593,-0.0593,-0.0601,-0.0601,-0.0601,-0.0601,0,0,0,0,0,0,0,-0.0623,-0.062,-0.0589,-0.0592,-0.0593,-0.0605,-0.0603,-0.0599,-0.0598,-0.06,-0.0601,-0.0597,-0.0598,-0.06,-0.06,-0.0593,-0.0601,-0.0601,-0.0601,-0.0601,-0.0642,-0.0643,0,0,0,0,0,0,-0.0617,-0.0621,-0.0589,-0.0589,-0.0607,-0.0603,-0.0602,-0.0594,-0.0598,-0.0599,-0.0597,-0.0598,-0.06,-0.06,-0.06,-0.0674,-0.0601,-0.0601,-0.0601,-0.064,-0.0642,-0.0643,0,0,0,0,0,0,-0.0618,-0.0614,-0.0589,-0.0604,-0.0601,-0.0602,-0.0592,-0.0593,-0.0602,-0.0595,-0.0597,-0.0605,-0.06,-0.06,-0.0615,-0.067,-0.0601,-0.06,-0.0639,-0.0641,-0.0643,-0.0767,0,0,0,0,0,0,-0.0619,-0.0614,-0.0615,-0.0603,-0.06,-0.0596,-0.0592,-0.0593,-0.0598,-0.0599,-0.0603,-0.0603,-0.0601,-0.0615,-0.0615,-0.0669,-0.06,-0.0637,-0.064,-0.0642,-0.0761,-0.0773,-0.0783,0,0,0,0,0,-0.0621,-0.0618,-0.0615,-0.0612,-0.0598,-0.0596,-0.0597,-0.06,-0.0598,-0.0608,-0.0614,-0.0603,-0.063,-0.0616,-0.0615,-0.067,-0.0636,-0.0639,-0.0642,-0.0756,-0.0771,-0.0782,0,0,0,0,0,0,-0.064,-0.0618,-0.0615,-0.0607,-0.0607,-0.0598,-0.0608,-0.0603,-0.0614,-0.062,-0.0613,-0.0614,-0.0647,-0.0631,-0.0615,-0.0686,-0.0634,-0.0636,-0.0721,-0.0734,-0.0745,-0.0731,-0.06,0,0,0,0,0,-0.0642,-0.0636,-0.0621,-0.0619,-0.062,-0.0615,-0.0616,-0.0616,-0.0619,-0.0624,-0.0628,-0.0636,-0.0655,-0.0672,-0.0672,-0.0708,-0.069,-0.0742,-0.0753,-0.0762,-0.0749,-0.0791,-0.0805,-0.0653,-0.0653,-0.0653,0,0,-0.0643,-0.0638,-0.0631,-0.0624,-0.0626,-0.0641,-0.0618,-0.0625,-0.0653,-0.0622,-0.0666,-0.0664,-0.0667,-0.0715,-0.073,-0.0714,-0.0796,-0.0766,-0.0775,-0.0755,-0.0795,-0.081,-0.0824,-0.0655,-0.0654,-0.0654,0,0,-0.0653,-0.0646,-0.0647,-0.0655,-0.0659,-0.0663,-0.0666,-0.0665,-0.0685,-0.071,-0.071,-0.0738,-0.0753,-0.0786,-0.08,-0.0863,-0.0841,-0.0868,-0.093,-0.0974,-0.0987,-0.0998,-0.0997,-0.1007,-0.0889,-0.0889,-0.0889,0,-0.0668,-0.0659,-0.065,-0.0666,-0.0686,-0.0677,-0.0701,-0.0719,-0.0728,-0.0749,-0.0738,-0.0779,-0.0792,-0.0861,-0.0897,-0.0892,-0.089,-0.089,-0.099,-0.1001,-0.1011,-0.1006,-0.1016,-0.0895,-0.0895,-0.0894,-0.0893,0,-0.068,-0.0682,-0.0691,-0.0713,-0.0738,-0.0753,-0.0779,-0.081,-0.0827,-0.0832,-0.0882,-0.0895,-0.0921,-0.0947,-0.0948,-0.1032,-0.1,-0.0992,-0.0964,-0.1034,-0.1024,-0.1032,-0.0905,-0.0902,-0.09,-0.0899,0,0,-0.0707,-0.0696,-0.0709,-0.0732,-0.0765,-0.0794,-0.0854,-0.0899,-0.0944,-0.0954,-0.1007,-0.1054,-0.1039,-0.1052,-0.1064,-0.1111,-0.1196,-0.1092,-0.1091,-0.1099,-0.1265,-0.1168,-0.1167,-0.1219,-0.1221,-0.1222,-0.1233,0,-0.0729,-0.0761,-0.0757,-0.0818,-0.0844,-0.0875,-0.0936,-0.0984,-0.1015,-0.1064,-0.1078,-0.1116,-0.1089,-0.1118,-0.1161,-0.1178,-0.1222,-0.1191,-0.1185,-0.1183,-0.1098,-0.1175,-0.1229,-0.1238,-0.124,-0.1241,-0.1242,0,-0.0756,-0.078,-0.0827,-0.0882,-0.0901,-0.0942,-0.1055,-0.1102,-0.1159,-0.1176,-0.12,-0.1193,-0.1249,-0.1223,-0.1272,-0.1255,-0.1268,-0.1275,-0.1276,-0.114,-0.1102,-0.115,-0.1256,-0.1255,-0.1254,-0.1253,-0.1252,0,-0.0801,-0.084,-0.0885,-0.0906,-0.0963,-0.1014,-0.1062,-0.1136,-0.1169,-0.1244,-0.1253,-0.1296,-0.1315,-0.134,-0.1327,-0.1322,-0.1365,-0.1362,-0.1278,-0.1269,-0.1297,-0.1284,-0.1411,-0.1411,-0.1411,-0.1411,-0.1411,0,-0.0822,-0.0861,-0.091,-0.0936,-0.1008,-0.1062,-0.1138,-0.1185,-0.1239,-0.1261,-0.1302,-0.131,-0.1351,-0.136,-0.1357,-0.1318,-0.1387,-0.1286,-0.1276,-0.1347,-0.134,-0.1302,-0.129,-0.1411,-0.1411,-0.1411,-0.1411,0,-0.0822,-0.0851,-0.0904,-0.0984,-0.1011,-0.1072,-0.1133,-0.117,-0.124,-0.1272,-0.129,-0.133,-0.1346,-0.1351,-0.1393,-0.1341,-0.1333,-0.1308,-0.1357,-0.1349,-0.1201,-0.1194,-0.1223,-0.122,-0.1217,-0.1215,-0.1213,0,-0.0802,-0.0835,-0.0926,-0.0946,-0.0966,-0.1048,-0.1076,-0.1154,-0.1173,-0.1258,-0.1252,-0.13,-0.1315,-0.1268,-0.1306,-0.1288,-0.1276,-0.1257,-0.1252,-0.1199,-0.1187,-0.1185,-0.1182,-0.1209,-0.1208,-0.1208,-0.1207,0,-0.0769,-0.0814,-0.0851,-0.0899,-0.0934,-0.0973,-0.1021,-0.1026,-0.1114,-0.118,-0.1182,-0.1189,-0.1205,-0.1212,-0.1203,-0.1192,-0.1263,-0.123,-0.1235,-0.123,-0.1182,-0.1173,-0.1173,-0.1198,-0.1199,-0.12,-0.12,0,-0.0738,-0.0749,-0.0803,-0.0835,-0.0876,-0.0883,-0.0922,-0.0943,-0.0979,-0.1069,-0.1071,-0.1126,-0.119,-0.1162,-0.1153,-0.1132,-0.1124,-0.1087,-0.11,-0.1111,-0.1069,-0.0992,-0.0946,0,0,0,0,0,-0.0694,-0.0699,-0.0725,-0.0758,-0.0795,-0.0816,-0.0873,-0.0913,-0.1,-0.0966,-0.1016,-0.1026,-0.1028,-0.1059,-0.1015,-0.1108,-0.1127,-0.1053,-0.1092,-0.1147,-0.1158,-0.1119,0,0,0,0,0,0,-0.0665,-0.0688,-0.0701,-0.0692,-0.0692,-0.0722,-0.0751,-0.0803,-0.0798,-0.0887,-0.089,-0.0961,-0.0973,-0.1034,-0.0993,-0.1002,-0.1004,-0.1093,-0.109,-0.1141,-0.1151,-0.1159,-0.1123,0,0,0,0,0]},{"header":{"parameterUnit":"m.s-1","parameterCategory":2,"la1":30.2991,"la2":30.254,"lo1":-89.0895,"lo2":-89.0444,"dy":0.0017,"dx":0.0017,"nx":28,"ny":28,"refTime":"2025-01-14T03:00:00:Z","depth":"4","parameterNumber":3,"parameterNumberName":"V-component_of_CURRENTS"},"data":[0,0,0,0,0,0,0,0,0,0,0,0,0,0,0,0,0,0,0,0,0,0,0,0,0,0,0,0,0,0,0,0,0,0,0,0,0,0,0,0,0,0,0,0,0,0,0,0,0,0,0,0,0,0,0,0,0,0,0.0363,0.0363,0,0.0361,0.0361,0.0361,0.0381,0.0381,0.0381,0.0382,0.0398,0.0398,0.0398,0,0,0,0,0,0,0,0,0,0,0,0,0,0.0353,0.0354,0.0363,0.0363,0.0363,0.0361,0.0361,0.0361,0.038,0.0381,0.0382,0.0382,0.0398,0.0398,0.0398,0,0,0,0,0,0,0,0,0,0,0,0,0,0.0356,0.0354,0.0363,0.0371,0.0372,0.0361,0.0361,0.0361,0.038,0.0381,0.0382,0.0382,0.0398,0.0398,0.0398,0.0385,0,0,0.0398,0.0398,0,0,0,0,0,0,0,0,0.0356,0.0357,0.037,0.0371,0.0371,0.0371,0.0364,0.037,0.038,0.0378,0.0382,0.0383,0.0389,0.039,0.0389,0.0385,0.0386,0.0398,0.0398,0.0398,0.0398,0,0,0,0,0,0,0,0.0356,0.0357,0.0363,0.037,0.0371,0.0365,0.0367,0.0365,0.0381,0.0378,0.038,0.0378,0.039,0.0389,0.039,0.0386,0.0398,0.0398,0.0398,0.0398,0.0397,0.0397,0,0,0,0,0,0,0.0355,0.0357,0.0363,0.0363,0.0364,0.0365,0.0367,0.0371,0.0381,0.0382,0.0377,0.0379,0.0389,0.039,0.039,0.0391,0.0398,0.0398,0.0398,0.0397,0.0397,0.0397,0,0,0,0,0,0,0.0355,0.0356,0.0363,0.0359,0.0359,0.0364,0.0369,0.0371,0.0374,0.0379,0.0382,0.0379,0.0389,0.039,0.0397,0.0391,0.0398,0.0398,0.0397,0.0397,0.0397,0.0382,0,0,0,0,0,0,0.0355,0.0356,0.0358,0.0359,0.0359,0.0353,0.0369,0.037,0.0371,0.0373,0.0381,0.0384,0.039,0.0397,0.0397,0.0391,0.0398,0.0397,0.0397,0.0397,0.0382,0.0381,0.038,0,0,0,0,0,0.0355,0.0348,0.0358,0.0359,0.0362,0.0353,0.0352,0.0359,0.037,0.0365,0.0381,0.0383,0.0397,0.0397,0.0397,0.0391,0.0397,0.0397,0.0397,0.0383,0.0381,0.038,0,0,0,0,0,0,0.0336,0.0349,0.036,0.0357,0.0356,0.0356,0.0351,0.0358,0.0365,0.037,0.0383,0.0385,0.039,0.0392,0.0392,0.0391,0.0397,0.0397,0.0386,0.0385,0.0384,0.0371,0.0398,0,0,0,0,0,0.0336,0.0341,0.0346,0.0343,0.0344,0.035,0.0347,0.035,0.0356,0.036,0.037,0.038,0.0388,0.0389,0.0395,0.039,0.0397,0.0387,0.0386,0.0385,0.0375,0.0389,0.0389,0.0397,0.0397,0.0397,0,0,0.0331,0.0335,0.034,0.034,0.0343,0.0331,0.035,0.0343,0.0333,0.0359,0.0357,0.0378,0.0387,0.0388,0.039,0.0389,0.0387,0.0385,0.0384,0.0374,0.0389,0.0388,0.0388,0.0396,0.0396,0.0396,0,0,0.0309,0.0325,0.0319,0.0317,0.0315,0.0317,0.0315,0.0318,0.0323,0.032,0.0345,0.0363,0.0364,0.0377,0.0381,0.0376,0.0384,0.0378,0.0357,0.0371,0.0371,0.037,0.0379,0.038,0.0374,0.0373,0.0373,0,0.0294,0.0293,0.0313,0.0297,0.0288,0.0309,0.0287,0.0293,0.0298,0.0303,0.0315,0.0343,0.0355,0.0363,0.0365,0.0372,0.0381,0.0361,0.037,0.0369,0.0369,0.0379,0.0379,0.0373,0.0373,0.0373,0.0373,0,0.0269,0.0264,0.0256,0.0251,0.0242,0.0228,0.0234,0.0235,0.0247,0.0259,0.0276,0.0304,0.032,0.0331,0.0344,0.0351,0.0359,0.0371,0.0372,0.0367,0.0378,0.0379,0.0372,0.0372,0.0372,0.0372,0,0,0.0228,0.0238,0.023,0.0222,0.0215,0.02,0.019,0.0187,0.0183,0.021,0.0211,0.0242,0.0275,0.0283,0.0313,0.0327,0.0339,0.0345,0.0346,0.0351,0.0367,0.035,0.035,0.0355,0.0355,0.0355,0.0376,0,0.0194,0.0163,0.0174,0.0138,0.0122,0.0135,0.0118,0.0121,0.0138,0.0149,0.0196,0.0211,0.0252,0.0263,0.0287,0.0326,0.034,0.0332,0.0372,0.0373,0.0357,0.035,0.0355,0.0377,0.0377,0.0377,0.0377,0,0.0155,0.0138,0.0097,0.0083,0.0075,0.0059,0.004,0.0031,0.0059,0.0072,0.0112,0.0155,0.0192,0.0224,0.0286,0.028,0.0318,0.0349,0.0351,0.0338,0.0358,0.0382,0.0379,0.0379,0.0379,0.0378,0.0378,0,0.0102,0.0082,0.0047,0.0039,0.0022,0.0008,0.0004,0.0011,0.0004,0.0033,0.0038,0.0099,0.0123,0.0183,0.0258,0.027,0.0321,0.0346,0.0367,0.0366,0.0383,0.0383,0.0381,0.0381,0.0381,0.0381,0.038,0,0.0054,0.003,0.0025,-0.0,-0.0039,-0.0035,-0.0064,-0.0061,-0.0051,-0.0059,0.0003,0.0013,0.0113,0.0165,0.0236,0.0299,0.0305,0.0355,0.0368,0.0377,0.0376,0.0384,0.0384,0.0381,0.0381,0.0381,0.0381,0,0.0008,0.0004,-0.0037,-0.0061,-0.0066,-0.0096,-0.0102,-0.0116,-0.0109,-0.0117,-0.0111,-0.0052,0.001,0.0107,0.0199,0.0258,0.0325,0.0346,0.0338,0.0351,0.0368,0.0367,0.037,0.037,0.0369,0.0369,0.0368,0,-0.0014,-0.0041,-0.0087,-0.0108,-0.0113,-0.0139,-0.0155,-0.0151,-0.0159,-0.0156,-0.0162,-0.0108,-0.0057,0.0054,0.016,0.0283,0.0307,0.0338,0.0365,0.0353,0.0366,0.0365,0.0365,0.0368,0.0368,0.0368,0.0368,0,-0.0059,-0.0078,-0.0113,-0.0158,-0.0181,-0.0205,-0.0216,-0.023,-0.0231,-0.0222,-0.0211,-0.0143,-0.0076,0.0037,0.0127,0.0222,0.0317,0.0335,0.0337,0.0362,0.0351,0.0363,0.0363,0.0366,0.0366,0.0366,0.0366,0,-0.0091,-0.012,-0.0166,-0.0202,-0.0235,-0.0261,-0.0259,-0.0262,-0.0273,-0.0261,-0.0258,-0.0177,-0.0123,0.0004,0.009,0.0176,0.0209,0.0244,0.0252,0.0255,0.0221,0.0191,0.0158,0,0,0,0,0,-0.0119,-0.0152,-0.0194,-0.0244,-0.0275,-0.0288,-0.0302,-0.0293,-0.0291,-0.0294,-0.0276,-0.0213,-0.0089,-0.003,0.0052,0.0095,0.023,0.0195,0.0276,0.0358,0.036,0.034,0,0,0,0,0,0,-0.0135,-0.0183,-0.0208,-0.0271,-0.03,-0.0332,-0.0339,-0.0331,-0.0322,-0.0308,-0.0241,-0.0203,-0.0077,-0.0146,0.0046,0.0074,0.0136,0.0258,0.026,0.0357,0.0359,0.036,0.034,0,0,0,0,0]}]]